K5EBQ Weather Reports


Display with metric or nautical units.
time (UTC)temp
F
wind
direction
speed
MPH
gust
MPH
rain 1hr
in
rain 24hr
in
rain mn
in
humidity
%
barometer
mb
20260507144535 65 77 0.0 0.0 0.00 0.01 0.00 83 1013.9
20260507143036 65 13 0.0 0.0 0.00 0.01 0.00 84 1013.5
20260507141533 65 34 0.0 0.0 0.00 0.01 0.00 83 1013.3
20260507140034 65 355 0.0 0.0 0.00 0.01 0.00 84 1013.0
20260507134534 65 119 0.0 0.0 0.00 0.01 0.00 86 1013.1
20260507133032 65 344 0.0 0.0 0.00 0.01 0.00 86 1013.6
20260507131543 65 5 0.0 0.0 0.00 0.01 0.00 86 1013.5
20260507130029 65 9 0.0 0.0 0.00 0.01 0.00 86 1013.6
20260507124526 66 48 0.0 0.0 0.00 0.01 0.00 86 1013.7
20260507123023 66 348 0.0 0.0 0.00 0.01 0.00 86 1012.9
20260507121520 66 360 0.0 0.0 0.00 0.01 0.00 86 1012.5
20260507120034 66 360 0.0 0.0 0.00 0.01 0.00 85 1012.4
20260507114518 67 355 0.0 0.0 0.00 0.01 0.00 85 1012.1
20260507113014 67 355 0.0 0.0 0.00 0.01 0.00 85 1011.8
20260507111513 67 28 0.0 0.0 0.00 0.01 0.00 86 1011.4
20260507110013 67 360 0.0 0.0 0.00 0.01 0.00 86 1011.6
20260507104512 67 355 0.0 0.0 0.00 0.01 0.00 86 1011.4
20260507103010 67 341 0.0 0.0 0.00 0.01 0.00 85 1011.2
20260507101510 67 360 0.0 0.0 0.00 0.01 0.00 86 1011.2
20260507100009 67 11 0.0 0.0 0.00 0.01 0.00 86 1011.1
20260507094508 67 334 0.0 0.0 0.00 0.01 0.00 86 1010.7
20260507093007 67 17 0.0 0.0 0.00 0.01 0.00 85 1010.4
20260507091506 67 25 0.0 0.0 0.00 0.01 0.00 85 1010.5
20260507090009 68 36 0.0 0.0 0.00 0.01 0.00 84 1010.5
20260507084510 68 360 0.0 0.0 0.00 0.01 0.00 84 1010.8
20260507083004 68 9 0.0 0.0 0.00 0.01 0.00 84 1010.7
20260507081504 68 360 0.0 0.0 0.00 0.01 0.00 84 1010.5
20260507080006 68 5 0.0 0.0 0.00 0.01 0.00 84 1010.5
20260507074501 68 5 0.0 0.0 0.00 0.01 0.00 84 1010.6
20260507073102 68 355 0.0 0.0 0.00 0.01 0.00 84 1010.9
20260507071600 68 331 0.0 0.0 0.00 0.01 0.00 83 1010.9
20260507070059 68 342 0.0 0.0 0.00 0.01 0.00 83 1011.3
20260507064556 68 349 0.0 0.0 0.00 0.01 0.00 83 1011.1
20260507063057 69 355 0.0 0.0 0.00 0.01 0.00 83 1010.6
20260507061553 69 355 0.0 0.0 0.00 0.01 0.00 82 1011.0
20260507060050 70 350 0.0 0.0 0.00 0.01 0.00 82 1010.6
20260507054626 70 22 0.0 0.0 0.00 0.01 0.00 82 1010.7
20260507053051 70 5 0.0 0.0 0.00 0.01 0.00 82 1010.3
20260507051545 71 338 0.0 0.0 0.00 0.01 0.00 81 1010.4
20260507050042 71 11 0.0 0.0 0.00 0.01 0.01 82 1010.6
20260507044548 71 355 0.0 0.0 0.00 0.01 0.01 82 1010.5
20260507043039 71 341 0.0 0.0 0.00 0.01 0.01 81 1010.4
20260507041541 72 355 0.0 0.0 0.00 0.01 0.01 81 1010.4
20260507040038 72 360 0.0 0.0 0.00 0.01 0.01 82 1010.5
20260507034535 72 300 0.0 0.0 0.00 0.01 0.01 81 1010.3
20260507033033 73 345 0.0 0.0 0.00 0.01 0.01 81 1010.2
20260507031529 73 313 0.0 0.0 0.00 0.01 0.01 81 1009.7
20260507030027 73 355 0.0 0.0 0.00 0.01 0.01 82 1009.4
20260507024525 74 355 0.0 0.0 0.00 0.01 0.01 82 1009.2
20260507023021 74 355 0.0 0.0 0.00 0.01 0.01 83 1008.7
20260507021521 74 350 0.0 0.0 0.00 0.01 0.01 83 1008.5
20260507020020 75 5 0.0 0.0 0.00 0.01 0.01 83 1008.4
20260507014523 75 349 0.0 0.0 0.00 0.01 0.01 83 1008.0
20260507013014 76 360 0.0 0.0 0.01 0.01 0.01 83 1007.9
20260507011513 76 43 0.0 0.0 0.01 0.01 0.01 84 1007.5
20260507010013 77 355 0.0 0.0 0.01 0.01 0.01 84 1007.3
20260507004516 78 305 0.0 0.0 0.01 0.01 0.01 84 1006.9
20260507003011 82 24 0.0 0.0 0.00 0.00 0.00 79 1006.6
20260507001514 85 242 0.0 0.0 0.00 0.00 0.00 82 1006.1
20260507000011 85 261 0.0 0.0 0.00 0.00 0.00 82 1006.0
20260506234513 86 197 0.0 0.0 0.00 0.00 0.00 79 1005.9
20260506233008 86 159 0.0 0.0 0.00 0.00 0.00 76 1005.8
20260506231509 87 159 0.0 0.0 0.00 0.00 0.00 75 1005.8
20260506230009 87 208 0.0 0.0 0.00 0.00 0.00 75 1005.6
20260506224507 87 212 0.0 0.0 0.00 0.00 0.00 76 1005.6
20260506223007 87 240 0.0 0.0 0.00 0.00 0.00 75 1005.6
20260506221507 87 209 0.0 0.0 0.00 0.00 0.00 75 1005.5
20260506220015 87 224 0.0 0.0 0.00 0.00 0.00 76 1005.4
20260506214506 87 198 0.0 0.0 0.00 0.00 0.00 74 1005.5
20260506213004 88 217 0.0 0.0 0.00 0.00 0.00 74 1005.6
20260506211508 87 232 0.0 0.0 0.00 0.00 0.00 75 1005.4
20260506210007 86 209 0.0 0.0 0.00 0.00 0.00 77 1005.7
20260506204502 87 219 0.0 0.0 0.00 0.00 0.00 76 1006.0
20260506203004 87 194 0.0 0.0 0.00 0.00 0.00 74 1006.0
20260506201600 87 165 0.0 0.0 0.00 0.00 0.00 75 1006.1
20260506200058 87 220 0.0 0.0 0.00 0.00 0.00 75 1006.1
20260506194628 86 159 0.0 0.0 0.00 0.00 0.00 77 1006.2
20260506194527 86 159 0.0 0.0 0.00 0.00 0.00 77 1006.2
20260506193104 86 242 0.0 0.0 0.00 0.00 0.00 79 1006.3
20260506191556 86 211 0.0 0.0 0.00 0.00 0.00 77 1006.7
20260506190100 87 142 0.0 0.0 0.00 0.00 0.00 77 1006.8
20260506184552 86 211 0.0 0.0 0.00 0.00 0.00 78 1006.9
20260506183050 85 240 0.0 0.0 0.00 0.00 0.00 80 1007.0
20260506181548 84 219 0.0 0.0 0.00 0.00 0.00 80 1007.4
20260506180100 84 256 0.0 0.0 0.00 0.00 0.00 80 1007.8
20260506174545 83 161 0.0 0.0 0.00 0.00 0.00 82 1008.0
20260506173043 83 273 0.0 0.0 0.00 0.00 0.00 82 1008.3
20260506171541 82 205 0.0 0.0 0.00 0.00 0.00 84 1008.3
20260506170041 82 150 0.0 0.0 0.00 0.00 0.00 85 1008.4
20260506164535 81 183 0.0 0.0 0.00 0.00 0.00 85 1008.5
20260506163055 81 160 0.0 0.0 0.00 0.00 0.00 86 1008.4
20260506161533 81 184 0.0 0.0 0.00 0.00 0.00 86 1008.0
20260506160031 81 163 0.0 0.0 0.00 0.00 0.00 85 1008.0
20260506154527 81 147 0.0 0.0 0.00 0.00 0.00 86 1007.9
20260506153024 81 165 0.0 0.0 0.00 0.00 0.00 86 1007.9
20260506151523 81 165 0.0 0.0 0.00 0.00 0.00 87 1007.5